Temp
89 89 89 89 89 90 90 90 91 91 90 92 92 91 92 91 92 91 91 91 90 90 90 89 89 89 90 89 88 88 89 88 90 90 89 89 90 91 92 92 91 91
88 89 88 90 89 89 90 91 90 90 90 90 92 93 92 92 92 92 91 91 91 91 90 91 90 89 89 90 89 89 88 88 88 92 89 88 89 90 91 91 92 92
89 89 89 89 91 90 93 92 91 91 92 93 92 92 93 93 92 91 91 92 92 93 91 90 90 90 90 90 89 89 89 88 88 92 89 88 90 90 90 93 93 92
88 89 91 92 92 92 92 91 91 90 92 92 93 94 94 97 93 92 91 90 91 91 92 91 91 92 91 90 89 89 90 89 90 89 89 89 89 91 91 91 93 93
89 89 91 92 92 92 91 91 92 93 92 92 94 93 92 91 91 93 91 90 90 92 91 91 91 92 91 90 89 89 90 91 90 89 88 88 89 90 92 92 90 91
89 89 89 90 91 91 92 92 92 93 93 94 93 95 93 92 92 93 93 92 93 93 94 93 92 92 93 91 90 89 91 92 93 90 89 88 91 93 94 92 90 89
90 90 90 91 92 92 91 91 92 92 94 95 94 93 94 93 92 92 92 92 94 93 94 92 91 92 92 91 90 89 89 90 91 90 88 90 89 90 93 91 89 89
91 92 91 91 92 92 91 92 92 92 92 93 94 93 93 94 93 94 93 93 93 93 92 93 91 90 94 92 90 89 90 93 91 89 88 88 89 89 90 92 90 89
92 92 91 91 92 93 94 94 94 93 93 92 94 95 94 93 94 95 92 92 92 92 91 91 90 91 92 92 91 90 90 92 93 91 89 89 89 89 90 91 90 89
91 92 94 93 94 94 94 95 96 95 94 93 94 96 96 93 94 94 93 90 91 90 90 90 90 91 92 93 91 91 90 90 91 91 91 91 91 91 92 91 91 90
92 93 93 93 94 96 96 97 97 97 96 94 95 95 96 95 93 93 92 91 92 91 90 90 91 91 91 93 93 93 92 92 91 91 91 91 91 91 91 91 91 92
91 93 94 94 94 96 97 97 98 97 97 96 96 95 95 97 95 94 93 91 91 92 92 91 90 91 90 91 94 95 93 93 93 92 92 92 93 93 93 93 92 92
92 93 93 95 94 95 97 97 98 99 98 97 96 96 96 97 97 94 93 93 92 92 93 91 91 92 90 90 91 93 93 92 94 93 93 93 94 94 96 95 95 94
91 93 94 93 94 92 94 96 97 97 96 96 96 95 96 97 98 97 95 95 93 93 93 93 91 91 90 90 91 92 93 93 92 93 94 94 94 94 96 97 96 96
90 92 93 93 92 92 92 93 95 95 95 95 94 95 98 98 98 98 96 94 94 93 93 94 94 92 93 92 91 91 92 93 93 93 93 92 93 95 95 95 96 98
89 90 90 91 90 90 89 91 93 93 95 94 94 94 94 93 94 95 97 96 94 93 93 94 94 95 88 79 82 91 92 94 93 92 91 92 91 91 94 96 97 98
88 88 88 88 89 89 89 89 89 91 90 91 91 92 91 91 92 93 95 96 96 95 94 94 95 95 80 71 72 75 89 92 91 91 91 90 92 90 90 93 95 96
88 87 87 87 88 87 88 88 88 89 88 89 90 91 89 92 92 91 91 94 96 96 96 95 95 84 72 69 70 70 76 90 93 92 93 92 91 92 92 92 93 95
88 87 87 87 87 87 87 87 87 87 88 88 90 90 91 88 88 91 90 91 93 92 94 96 96 80 69 68 68 68 68 79 93 93 93 93 92 91 92 91 91 92
87 87 87 87 87 87 87 86 86 86 88 90 90 89 88 89 90 89 90 89 90 90 90 94 95 82 68 67 66 66 67 72 90 91 92 93 92 93 93 92 91 91
88 87 87 87 87 86 86 86 86 86 87 89 91 91 89 87 89 89 89 90 91 92 92 94 97 76 67 65 64 64 65 70 87 90 91 91 92 92 90 92 92 91
88 87 87 87 87 87 86 85 85 85 86 88 89 93 92 92 91 91 91 91 91 92 93 92 96 73 66 64 62 63 64 79 85 85 87 89 90 90 91 90 91 90
85 88 88 87 87 87 86 86 85 86 87 88 89 90 93 93 92 92 90 92 92 91 91 91 94 79 64 62 61 60 66 83 84 85 86 87 89 90 90 90 90 90
80 83 87 87 87 87 87 88 88 88 88 89 89 90 92 94 94 93 93 92 93 92 94 92 93 82 62 61 59 59 70 83 85 85 86 86 87 89 90 89 90 84
78 79 80 85 87 88 88 88 88 88 89 90 90 90 91 92 92 93 94 94 96 95 85 90 94 86 63 61 59 58 70 84 86 86 85 86 88 88 89 90 89 86
77 77 79 81 82 83 86 86 89 91 91 92 91 91 91 92 93 93 93 94 96 96 97 94 93 93 80 58 59 57 61 83 86 85 85 85 87 87 88 89 89 90
MSLP
1018.22 1018.38 1018.74 1018.94 1019.10 1019.10 1019.30 1019.58 1019.58 1019.78 1019.90 1019.86 1020.14 1020.14 1020.18 1020.26 1020.14 1020.38 1020.54 1020.62 1020.82 1020.94 1021.02 1021.10 1021.10 1021.26 1021.30 1021.38 1021.50 1021.62 1021.66 1021.78 1021.62 1021.62 1021.86 1021.94 1022.06 1022.02 1022.02 1022.02 1022.02 1022.10
1018.02 1018.14 1018.30 1018.50 1018.78 1018.86 1018.98 1019.02 1019.30 1019.46 1019.70 1019.74 1019.66 1019.66 1019.78 1019.94 1020.10 1020.18 1020.38 1020.58 1020.66 1020.78 1020.82 1020.90 1021.02 1021.10 1021.22 1021.22 1021.42 1021.62 1021.70 1021.74 1021.90 1021.38 1021.86 1021.94 1021.90 1021.82 1021.94 1021.86 1021.86 1021.74
1017.74 1017.94 1018.18 1018.46 1018.50 1018.66 1018.70 1018.74 1018.94 1019.18 1019.30 1019.30 1019.38 1019.50 1019.62 1019.66 1019.90 1020.02 1020.14 1020.30 1020.46 1020.46 1020.70 1020.74 1020.86 1020.94 1021.06 1021.14 1021.26 1021.46 1021.58 1021.70 1021.86 1021.42 1021.66 1021.86 1021.70 1021.82 1021.74 1021.54 1021.62 1021.74
1017.42 1017.54 1017.70 1017.86 1017.94 1018.22 1018.38 1018.58 1018.74 1018.94 1018.90 1019.18 1019.26 1019.14 1019.30 1019.18 1019.50 1019.90 1020.06 1020.22 1020.30 1020.38 1020.38 1020.54 1020.66 1020.66 1020.86 1020.98 1021.18 1021.34 1021.30 1021.46 1021.34 1021.34 1021.58 1021.58 1021.58 1021.50 1021.58 1021.46 1021.46 1021.46
1017.02 1017.22 1017.30 1017.46 1017.54 1017.74 1018.02 1018.34 1018.50 1018.58 1018.78 1018.78 1018.82 1018.94 1019.18 1019.38 1019.58 1019.70 1019.90 1020.10 1020.22 1020.30 1020.30 1020.50 1020.54 1020.58 1020.70 1020.86 1021.02 1021.26 1021.14 1021.26 1021.14 1021.30 1021.54 1021.70 1021.46 1021.46 1021.38 1021.38 1021.70 1021.78
1016.50 1016.70 1016.94 1017.22 1017.38 1017.62 1017.86 1018.06 1018.14 1018.18 1018.38 1018.54 1018.70 1018.58 1018.82 1019.14 1019.38 1019.46 1019.58 1019.82 1019.86 1019.98 1020.02 1020.10 1020.30 1020.34 1020.46 1020.66 1020.86 1021.02 1020.98 1020.98 1020.74 1021.06 1021.42 1021.58 1021.34 1021.02 1021.02 1021.22 1021.54 1021.82
1016.22 1016.46 1016.70 1016.78 1017.10 1017.26 1017.58 1017.70 1017.78 1017.90 1017.94 1017.98 1018.14 1018.50 1018.46 1018.82 1019.10 1019.26 1019.34 1019.50 1019.54 1019.62 1019.74 1019.90 1020.14 1020.22 1020.18 1020.38 1020.74 1020.94 1020.94 1020.94 1020.78 1020.90 1021.30 1021.26 1021.22 1021.22 1020.94 1021.14 1021.42 1021.66
1015.74 1015.90 1016.18 1016.38 1016.74 1016.94 1017.30 1017.38 1017.50 1017.62 1017.66 1017.82 1018.10 1018.14 1018.22 1018.46 1018.66 1018.78 1018.98 1019.18 1019.38 1019.50 1019.62 1019.66 1019.90 1020.14 1020.02 1020.14 1020.50 1020.78 1020.90 1020.62 1020.82 1020.98 1021.14 1021.22 1021.10 1021.26 1021.14 1020.98 1021.14 1021.54
1015.34 1015.62 1015.86 1016.14 1016.42 1016.54 1016.78 1016.86 1016.98 1017.14 1017.26 1017.66 1017.78 1017.74 1017.86 1018.06 1018.26 1018.38 1018.62 1018.86 1019.10 1019.22 1019.46 1019.62 1019.74 1019.90 1019.86 1019.94 1020.18 1020.50 1020.70 1020.54 1020.34 1020.58 1020.90 1021.06 1021.14 1021.14 1020.98 1020.82 1021.06 1021.22
1015.22 1015.22 1015.46 1015.74 1016.06 1016.06 1016.30 1016.34 1016.34 1016.58 1016.78 1017.18 1017.34 1017.30 1017.54 1017.70 1017.82 1017.98 1018.22 1018.66 1018.90 1019.06 1019.26 1019.42 1019.54 1019.58 1019.62 1019.66 1019.98 1020.10 1020.30 1020.46 1020.38 1020.38 1020.42 1020.54 1020.62 1020.66 1020.62 1020.66 1020.82 1021.02
1014.90 1014.98 1015.22 1015.42 1015.54 1015.50 1015.70 1015.78 1015.90 1016.02 1016.26 1016.66 1016.82 1017.06 1017.06 1017.26 1017.58 1017.66 1017.98 1018.30 1018.58 1018.74 1018.94 1019.10 1019.14 1019.22 1019.42 1019.42 1019.46 1019.54 1019.78 1019.90 1020.02 1020.10 1020.18 1020.22 1020.22 1020.22 1020.26 1020.34 1020.50 1020.62
1014.58 1014.74 1014.86 1015.02 1015.14 1015.14 1015.18 1015.30 1015.38 1015.58 1015.78 1016.06 1016.30 1016.66 1016.78 1016.82 1017.14 1017.34 1017.54 1017.90 1018.02 1018.14 1018.30 1018.50 1018.62 1018.78 1019.02 1019.14 1019.10 1019.14 1019.34 1019.46 1019.54 1019.70 1019.74 1019.78 1019.82 1019.82 1019.86 1019.94 1020.10 1020.22
1014.18 1014.34 1014.42 1014.54 1014.78 1014.82 1014.70 1014.82 1015.02 1015.10 1015.30 1015.58 1015.74 1016.06 1016.34 1016.54 1016.58 1016.94 1017.06 1017.30 1017.54 1017.62 1017.78 1017.98 1018.18 1018.30 1018.54 1018.74 1018.82 1018.86 1019.02 1019.22 1019.30 1019.30 1019.38 1019.42 1019.38 1019.34 1019.30 1019.34 1019.50 1019.62
1013.70 1013.70 1013.86 1014.10 1014.22 1014.50 1014.62 1014.58 1014.66 1014.82 1014.98 1015.10 1015.34 1015.78 1015.94 1016.02 1016.18 1016.42 1016.66 1016.82 1017.02 1017.18 1017.30 1017.42 1017.74 1017.98 1018.14 1018.30 1018.42 1018.54 1018.70 1018.86 1018.98 1019.06 1019.02 1019.02 1019.02 1018.98 1018.94 1018.94 1018.98 1019.02
1013.30 1013.38 1013.46 1013.70 1014.02 1014.30 1014.54 1014.62 1014.58 1014.70 1014.78 1014.98 1015.18 1015.38 1015.38 1015.42 1015.58 1015.78 1016.14 1016.50 1016.58 1016.78 1016.94 1017.02 1017.26 1017.50 1017.58 1017.78 1018.10 1018.26 1018.26 1018.42 1018.54 1018.66 1018.78 1018.86 1018.82 1018.74 1018.66 1018.74 1018.70 1018.58
1013.18 1013.34 1013.46 1013.58 1013.90 1014.18 1014.38 1014.46 1014.54 1014.58 1014.70 1014.94 1015.06 1015.18 1015.26 1015.34 1015.42 1015.54 1015.70 1016.02 1016.38 1016.54 1016.66 1016.78 1016.86 1016.82 1016.94 1017.26 1017.42 1017.58 1017.86 1017.90 1018.02 1018.22 1018.34 1018.38 1018.58 1018.70 1018.58 1018.42 1018.34 1018.30
1013.18 1013.38 1013.46 1013.78 1013.78 1013.94 1014.10 1014.30 1014.46 1014.50 1014.70 1014.86 1014.98 1015.10 1015.22 1015.34 1015.46 1015.62 1015.62 1015.58 1015.82 1016.10 1016.38 1016.46 1016.38 1016.26 1016.54 1016.94 1017.22 1017.38 1017.46 1017.62 1017.90 1017.98 1017.98 1018.18 1018.22 1018.42 1018.58 1018.34 1018.10 1017.98
1012.98 1013.18 1013.42 1013.58 1013.70 1013.94 1014.02 1014.10 1014.26 1014.50 1014.70 1014.82 1014.90 1015.02 1015.14 1015.06 1015.34 1015.46 1015.42 1015.38 1015.38 1015.50 1015.74 1015.78 1015.82 1015.78 1016.22 1016.62 1016.90 1017.14 1017.34 1017.38 1017.38 1017.58 1017.62 1017.74 1017.82 1017.86 1017.86 1017.94 1017.98 1017.82
1012.74 1013.02 1013.18 1013.34 1013.50 1013.58 1013.78 1014.02 1014.26 1014.46 1014.58 1014.66 1014.74 1014.62 1014.74 1015.10 1015.10 1015.10 1015.18 1015.10 1015.14 1015.30 1015.30 1015.14 1015.18 1015.22 1015.78 1016.14 1016.46 1016.78 1017.10 1017.30 1017.14 1017.10 1017.22 1017.26 1017.26 1017.38 1017.42 1017.50 1017.54 1017.66
1012.62 1012.70 1012.90 1012.98 1013.06 1013.26 1013.54 1013.86 1014.10 1014.26 1014.14 1014.06 1014.22 1014.38 1014.70 1014.74 1014.66 1014.74 1014.70 1014.78 1014.74 1014.82 1014.82 1014.66 1014.54 1014.58 1015.14 1015.54 1015.90 1016.30 1016.66 1017.06 1016.86 1016.86 1016.86 1016.78 1016.82 1016.82 1016.82 1016.94 1017.10 1017.30
1012.42 1012.54 1012.58 1012.66 1012.74 1012.94 1013.22 1013.46 1013.66 1013.74 1013.82 1013.82 1013.82 1013.98 1014.18 1014.34 1014.30 1014.34 1014.30 1014.26 1014.26 1014.26 1014.34 1014.30 1013.98 1014.06 1014.58 1014.98 1015.38 1015.82 1016.22 1016.74 1016.54 1016.50 1016.42 1016.42 1016.34 1016.30 1016.38 1016.38 1016.46 1016.62
1012.02 1012.22 1012.34 1012.30 1012.42 1012.58 1012.78 1013.02 1013.10 1013.22 1013.38 1013.34 1013.38 1013.22 1013.14 1013.26 1013.50 1013.54 1013.66 1013.74 1013.66 1013.74 1013.90 1014.02 1013.50 1013.66 1014.22 1014.70 1015.06 1015.54 1016.14 1016.54 1016.34 1016.46 1016.38 1016.18 1016.06 1015.94 1015.86 1015.86 1015.90 1016.02
1012.18 1011.86 1011.86 1011.98 1012.02 1012.18 1012.30 1012.38 1012.50 1012.58 1012.62 1012.58 1012.98 1012.90 1012.86 1012.86 1012.90 1012.90 1012.94 1013.06 1013.18 1013.30 1013.54 1013.50 1013.26 1013.26 1013.78 1014.30 1014.82 1015.42 1016.18 1016.10 1016.10 1016.14 1016.18 1016.10 1015.86 1015.62 1015.50 1015.42 1015.38 1015.46
1012.86 1012.22 1011.66 1011.54 1011.58 1011.74 1011.70 1011.62 1011.58 1011.66 1011.86 1011.86 1012.26 1012.42 1012.42 1012.18 1012.02 1012.18 1012.22 1012.26 1012.50 1012.66 1012.66 1013.06 1012.90 1012.78 1013.26 1013.74 1014.30 1015.02 1015.26 1015.46 1015.62 1015.82 1015.82 1015.82 1015.62 1015.34 1015.18 1015.06 1014.94 1015.10
1013.22 1012.78 1012.30 1011.58 1011.18 1011.06 1011.02 1011.06 1011.06 1011.14 1011.10 1011.14 1011.38 1011.58 1011.66 1011.50 1011.46 1011.58 1011.58 1011.54 1011.54 1011.74 1011.94 1012.38 1012.30 1012.22 1012.66 1013.18 1013.78 1014.38 1014.74 1014.70 1014.94 1015.22 1015.46 1015.34 1015.22 1015.10 1014.82 1014.74 1014.66 1014.62
1013.38 1013.06 1012.54 1012.02 1011.86 1011.58 1011.02 1010.86 1010.58 1010.66 1010.66 1010.78 1010.90 1010.94 1011.02 1011.02 1011.02 1011.02 1011.18 1011.06 1010.90 1011.10 1011.26 1011.50 1011.78 1011.70 1011.94 1012.58 1013.18 1013.78 1014.10 1014.06 1014.22 1014.78 1014.94 1014.86 1014.70 1014.62 1014.62 1014.38 1014.22 1014.18
Wind_Speed
11 10 10 10 9 8 8 8 8 8 7 7 7 7 6 6 6 6 7 6 6 6 6 5 5 5 5 5 4 4 3 4 3 3 4 4 4 5 5 5 5 4
13 12 10 10 9 8 8 8 8 7 7 7 7 6 6 6 7 7 6 7 7 7 6 7 6 6 6 5 6 5 5 5 5 4 4 5 4 4 5 6 5 4
13 13 13 13 11 12 12 10 8 8 8 8 8 7 7 7 7 6 6 7 7 7 7 6 6 7 7 6 6 6 5 5 6 5 4 4 4 4 4 5 5 6
14 14 13 14 13 11 11 10 10 8 8 8 9 9 8 7 7 8 7 7 7 6 6 7 6 7 7 7 6 6 6 6 6 5 5 4 4 4 4 4 5 4
15 14 13 13 12 11 10 11 12 10 10 9 9 9 7 7 7 7 7 7 7 7 7 7 7 7 7 7 7 6 6 6 7 6 6 6 5 5 5 5 5 5
14 13 13 12 12 12 12 12 12 12 11 11 10 9 9 9 8 8 8 8 8 8 8 8 8 8 8 7 7 7 7 7 6 7 7 7 7 6 5 5 5 6
15 14 15 13 14 13 13 12 11 11 11 10 9 10 9 9 9 9 9 9 9 8 9 8 8 8 7 7 7 7 7 7 6 6 7 7 7 7 7 5 6 6
15 14 14 13 15 14 14 13 12 12 11 10 11 10 10 10 10 10 10 10 10 9 8 8 8 8 8 8 8 8 8 7 7 7 8 8 7 7 8 6 6 6
14 14 14 15 16 14 15 15 14 13 12 12 12 11 11 11 11 11 10 10 10 9 9 9 9 9 8 8 8 8 8 8 7 8 8 8 8 8 8 8 8 7
14 14 15 15 16 14 15 15 14 13 12 13 13 12 11 11 12 12 11 10 10 10 10 9 9 9 9 9 9 9 9 9 8 8 8 8 8 8 9 8 9 8
15 15 15 16 16 15 16 16 15 14 12 14 13 13 13 11 11 11 11 11 11 11 11 11 11 10 10 10 10 9 10 9 9 9 9 9 9 8 8 8 8 9
15 15 16 16 16 15 16 16 15 14 13 13 13 14 14 13 12 11 11 12 12 12 12 12 11 11 11 11 11 11 10 10 10 10 10 10 10 10 9 9 9 9
15 15 14 15 15 15 14 14 15 15 15 14 13 14 14 14 14 13 11 12 13 12 13 12 12 12 11 11 11 11 11 10 11 11 10 10 10 10 10 10 10 10
15 15 15 14 13 13 13 14 14 14 14 13 12 13 14 15 15 14 13 12 12 12 12 12 12 11 12 11 11 11 11 12 11 11 11 11 11 11 11 11 11 11
13 13 13 13 13 13 13 13 13 13 13 12 12 12 12 14 14 14 14 13 13 12 12 12 12 12 11 11 12 12 12 12 12 12 12 12 11 12 11 11 11 11
12 11 11 12 13 13 13 13 13 13 13 13 13 13 12 11 12 12 13 14 13 13 12 12 12 11 11 14 13 11 12 12 11 11 12 11 11 11 12 12 12 11
11 11 11 12 12 13 12 13 13 12 12 12 12 12 12 11 11 13 13 13 14 13 13 12 11 11 14 15 16 15 12 11 11 11 11 11 12 11 11 11 11 11
11 11 12 13 12 12 12 12 12 12 12 12 12 13 12 12 13 13 13 13 12 13 14 13 12 13 14 16 17 17 15 13 11 11 11 11 11 12 11 11 11 11
12 12 13 13 13 12 12 11 12 12 13 13 14 13 12 12 13 14 14 14 13 14 14 14 14 14 16 17 17 18 18 16 13 12 12 12 11 12 12 11 10 10
12 13 13 13 12 12 11 12 12 13 14 13 13 12 12 13 15 15 14 14 14 15 14 14 15 14 18 19 19 19 19 16 14 15 14 13 12 12 11 12 11 11
13 12 13 12 12 12 12 13 13 13 14 13 13 13 14 14 14 15 14 15 15 15 14 15 15 15 17 20 20 20 19 16 14 14 13 13 13 13 13 12 12 11
12 13 12 12 12 12 13 14 14 14 14 13 13 13 13 13 13 14 15 16 16 15 14 15 14 15 16 17 18 18 18 11 13 13 13 13 13 14 13 12 13 12
11 13 13 13 13 13 14 14 14 15 14 12 13 14 14 14 14 14 13 14 15 15 15 14 14 13 16 17 17 17 13 11 12 12 12 14 14 13 13 13 13 13
12 11 13 14 13 15 15 15 14 13 13 12 14 14 15 15 14 13 13 14 15 16 15 15 15 14 17 18 19 19 17 12 11 12 12 13 13 14 13 12 13 16
11 12 12 12 14 15 14 15 14 13 12 12 13 13 14 13 13 13 14 14 15 16 15 17 15 14 17 19 20 21 18 12 12 12 12 13 12 13 14 13 13 13
10 10 11 12 11 13 11 13 13 12 13 13 13 12 12 13 13 14 16 14 14 15 14 16 16 15 13 20 20 21 22 14 12 12 13 14 13 13 12 13 14 13
Wind_Direction
200 199 201 204 208 211 209 206 207 205 210 209 205 204 199 191 196 187 195 196 201 210 202 207 201 201 201 197 194 211 215 210 237 185 221 230 231 234 230 224 231 234
202 202 202 204 205 206 209 210 207 213 204 213 214 207 194 195 192 199 198 200 198 207 206 206 208 210 209 206 195 208 207 207 219 201 219 227 242 233 237 235 238 242
201 202 203 204 205 204 207 204 209 211 212 212 210 214 205 197 201 194 200 205 205 206 199 209 211 210 212 213 207 209 210 210 217 219 212 230 238 232 240 230 226 222
201 205 207 210 212 208 208 209 207 213 218 212 214 211 214 212 194 193 196 200 207 208 203 206 212 211 210 214 214 221 216 218 220 224 217 224 227 234 227 239 240 232
199 202 209 212 213 212 209 211 212 207 214 216 212 212 207 211 196 198 194 193 204 205 203 207 205 215 209 214 213 224 222 220 215 219 224 226 224 223 233 227 231 236
198 200 203 208 210 209 209 210 211 213 211 211 214 211 206 201 207 211 202 202 199 210 208 207 206 209 211 210 216 222 227 229 214 208 222 228 233 222 226 214 220 226
194 196 200 201 206 207 210 211 211 215 214 215 207 214 211 207 207 211 210 208 215 208 212 206 207 211 210 212 213 218 226 236 248 218 222 229 227 235 233 220 221 227
197 195 197 198 201 203 208 209 212 210 213 212 212 209 212 213 210 209 209 211 214 214 213 210 202 208 213 210 214 215 223 221 223 229 229 234 236 228 227 233 220 226
197 196 196 199 201 202 207 210 210 211 208 210 214 211 207 215 213 215 211 209 214 214 208 211 208 209 213 217 215 216 221 231 226 219 225 230 227 229 229 225 226 224
197 199 199 198 202 204 208 211 211 208 206 210 212 215 209 208 216 216 211 207 209 208 206 209 208 212 215 213 215 218 221 223 230 231 231 230 234 235 230 230 230 229
202 202 203 203 205 205 208 209 211 210 205 209 211 214 216 210 208 213 212 207 210 208 208 209 211 212 213 219 218 219 222 226 227 227 229 233 238 238 240 239 236 235
202 205 207 207 208 210 210 209 210 211 208 206 210 211 213 215 209 208 208 208 212 212 211 210 210 211 212 217 221 221 222 227 229 231 233 234 234 236 236 234 237 236
203 205 208 209 207 212 213 212 213 212 212 209 206 210 210 214 213 211 210 212 213 215 216 212 211 211 210 212 219 224 225 226 232 232 235 237 237 240 241 236 234 234
205 206 208 207 209 209 213 215 214 214 213 213 209 208 213 214 217 214 211 214 216 217 218 216 213 213 211 211 214 219 221 225 228 235 238 236 240 240 241 243 239 236
206 207 208 204 206 205 210 214 215 213 213 213 211 214 214 216 217 219 216 217 219 219 220 218 219 218 216 212 213 216 222 226 228 231 233 237 240 242 239 240 243 241
205 207 206 206 203 204 205 208 212 213 213 213 213 215 217 217 221 221 223 221 220 219 219 220 222 223 214 208 212 218 219 227 227 228 233 235 235 238 243 242 241 242
201 201 204 205 205 205 204 206 209 211 213 213 215 215 217 215 219 221 223 225 223 222 220 221 223 223 207 197 205 214 223 226 227 228 227 230 232 233 239 243 244 241
207 202 202 204 205 206 206 206 207 208 211 213 215 215 213 216 216 218 223 225 226 226 225 225 226 219 196 196 202 206 212 225 229 230 230 229 231 234 234 235 238 240
211 208 205 206 206 207 207 206 207 209 212 215 217 217 216 215 218 218 219 221 225 226 228 228 230 206 191 195 200 202 205 214 232 236 235 233 232 231 234 233 233 234
222 213 212 211 209 207 206 209 211 214 216 217 221 220 221 221 221 221 220 218 219 221 224 228 230 205 190 194 197 198 200 201 226 231 235 239 238 235 233 230 228 231
236 225 219 216 212 208 207 210 212 217 219 219 221 220 219 220 224 224 223 222 222 222 223 226 227 214 191 194 196 197 196 196 219 227 232 233 234 234 236 234 230 226
241 237 227 219 215 212 210 210 212 215 217 218 224 227 225 224 223 227 226 225 225 226 228 230 234 211 195 196 196 196 188 196 216 223 229 231 231 233 232 230 230 229
274 247 239 229 220 217 216 214 213 214 217 218 222 226 228 226 227 226 227 230 229 226 228 233 237 213 190 193 193 188 177 206 215 222 226 229 233 231 232 232 229 225
323 296 251 236 233 227 221 220 218 217 219 215 219 223 227 230 228 228 229 229 229 228 224 228 234 217 185 191 189 178 185 201 212 220 226 227 231 231 233 234 232 225
314 315 311 266 240 234 231 227 221 221 222 217 220 223 230 232 231 234 232 230 230 229 222 227 235 223 185 190 187 181 189 204 211 220 225 227 226 228 228 232 234 224
316 317 307 307 287 269 261 244 235 233 226 221 223 227 229 228 230 233 235 235 234 232 230 224 231 238 195 188 184 186 190 199 210 216 226 225 226 228 225 227 228 232